Estherville, IA

3:11 AM CDT on July 23, 2017 (GMT -0500)
Estherville Municipal

Weather History for KEST - January, 2014

Change the Weather History Date:

Wednesday, January 22, 2014

  Actual Average Record
Temperature  
Mean Temperature 4 °F 16 °F  
Max Temperature 15 °F 25 °F 50 °F (2002)
Min Temperature -8 °F 7 °F -28 °F (1970)
Degree Days  
Heating Degree Days 61 49  
Month to date heating degree days 1151 1091  
Since 1 July heating degree days 4403 4234  
Cooling Degree Days 0 0  
Month to date cooling degree days 0 0  
Year to date cooling degree days 0 0  
Moisture  
Dew Point -2 °F    
Average Humidity 74    
Maximum Humidity 83    
Minimum Humidity 65    
Precipitation  
Precipitation T in 0.02 in 0.80 in (1952)
Month to date precipitation 0.05 0.27  
Sea Level Pressure  
Sea Level Pressure 30.19 in    
Wind  
Wind Speed 22 mph (NNW)    
Max Wind Speed 38 mph    
Max Gust Speed 46 mph    
Visibility 6 miles    
Events Snow    
T = Trace of Precipitation, MM = Missing Value Source: NWS Daily Summary

Daily Weather History Graph

Daily Weather History Graph

Search for Another Location

Airport or City:

Trip Planner

Search our weather history database for the weather conditions in past years. The results will help you decide how hot, cold, wet, or windy it might be!

Date:

Astronomy

Jan. 22, 2014 Rise Set
Actual Time 7:44 AM CST 5:17 PM CST
Civil Twilight 7:13 AM CST 5:48 PM CST
Nautical Twilight 6:38 AM CST 6:23 PM CST
Astronomical Twilight 6:04 AM CST 6:57 PM CST
Moon No Moon Rise 10:33 AM CST (1/22)
Length of Visible Light 10h 35m
Length of Day
9h 33m
Waning Gibbous, 65% of the Moon is Illuminated
Jan 22
Waning Gibbous
Jan 23
Last Quarter
Jan 30
New
Feb 6
First Quarter
Feb 14
Full

Hourly Weather History & Observations

Time (CST) Temp. Windchill Dew Point Humidity Pressure Visibility Wind Dir Wind Speed Gust Speed Precip Events Conditions
12:52 AM 12.9 °F -0.9 °F 6.1 °F 74% 30.04 in 9.0 mi WNW 11.5 mph - 0.00 in Snow Light Snow
1:52 AM 15.1 °F -1.1 °F 10.0 °F 80% 30.04 in 6.0 mi WNW 17.3 mph - 0.00 in Snow Light Snow
2:52 AM 14.0 °F -3.4 °F 9.0 °F 80% 30.05 in 4.0 mi NNW 19.6 mph - 0.00 in Snow Light Snow
3:52 AM 12.0 °F -7.3 °F 7.0 °F 80% 30.08 in 6.0 mi NNW 23.0 mph - 0.00 in Snow Light Snow
4:08 AM 12.0 °F -5.6 °F 7.0 °F 80% 29.99 in 2.5 mi NNW 18.4 mph - 0.00 in Snow Light Snow
4:14 AM 10.9 °F -9.6 °F 6.1 °F 81% 29.99 in 3.0 mi NNW 25.3 mph 34.5 mph 0.00 in Snow Light Snow
4:23 AM 10.0 °F -10.0 °F 5.0 °F 80% 30.00 in 6.0 mi NNW 23.0 mph - 0.00 in Snow Light Snow
4:35 AM 10.0 °F -9.1 °F 5.0 °F 80% 30.00 in 10.0 mi NNW 20.7 mph - 0.00 in   Overcast
4:47 AM 8.6 °F -10.5 °F 5.0 °F 85% 30.01 in 1.8 mi NNW 19.6 mph 25.3 mph 0.00 in Snow Light Snow
4:52 AM 9.0 °F -9.0 °F 3.9 °F 80% 30.10 in 1.5 mi North 17.3 mph - 0.00 in Snow Light Snow
4:58 AM 8.1 °F -9.6 °F 3.9 °F 83% 30.01 in 3.0 mi NNW 16.1 mph - 0.00 in Snow Light Snow
5:21 AM 7.0 °F -9.1 °F 3.0 °F 84% 30.01 in 10.0 mi NNW 12.7 mph - 0.00 in   Scattered Clouds
5:52 AM 5.0 °F -10.0 °F 1.0 °F 84% 30.10 in 10.0 mi NW 10.4 mph - 0.00 in   Partly Cloudy
6:06 AM 5.0 °F -10.0 °F 1.0 °F 84% 30.00 in 10.0 mi NW 10.4 mph - N/A   Mostly Cloudy
6:15 AM 6.1 °F -7.8 °F 1.9 °F 83% 30.00 in 10.0 mi WNW 9.2 mph - N/A   Mostly Cloudy
6:52 AM 8.1 °F -5.3 °F 3.9 °F 83% 30.09 in 10.0 mi WNW 9.2 mph - N/A   Overcast
7:52 AM 10.0 °F -3.7 °F 6.1 °F 84% 30.10 in 10.0 mi NNW 10.4 mph - N/A   Overcast
8:52 AM 12.0 °F -4.5 °F 7.0 °F 80% 30.12 in 3.0 mi NNW 16.1 mph - 0.00 in Snow Light Snow
9:18 AM 12.0 °F -6.9 °F 7.0 °F 80% 30.04 in 2.5 mi NNW 21.9 mph - 0.00 in Snow Light Snow
9:25 AM 12.0 °F -5.6 °F 7.0 °F 80% 30.05 in 3.0 mi NNW 18.4 mph - 0.00 in Snow Light Snow
9:52 AM 12.0 °F -6.5 °F 6.1 °F 77% 30.14 in 7.0 mi NNW 20.7 mph - 0.00 in   Overcast
10:36 AM 12.0 °F -8.5 °F 5.0 °F 73% 30.08 in 2.5 mi NNW 26.5 mph 38.0 mph N/A   Haze
10:41 AM 10.9 °F -11.0 °F 5.0 °F 77% 30.08 in 1.0 mi NNW 29.9 mph 38.0 mph 0.00 in   Mostly Cloudy
10:45 AM 10.9 °F -11.6 °F 5.0 °F 77% 30.09 in 0.5 mi NNW 32.2 mph 40.3 mph 0.00 in Snow Snow
10:52 AM 10.9 °F -9.2 °F 5.0 °F 77% 30.18 in 0.8 mi NNW 24.2 mph 40.3 mph 0.00 in Snow Light Snow
11:01 AM 10.0 °F -12.5 °F 3.9 °F 76% 30.11 in 1.0 mi NNW 31.1 mph 39.1 mph 0.00 in Snow Light Snow
11:07 AM 9.0 °F -13.7 °F 3.9 °F 80% 30.11 in 1.2 mi NNW 29.9 mph 38.0 mph 0.00 in   Mostly Cloudy
11:21 AM 9.0 °F -14.9 °F 1.9 °F 73% 30.11 in 0.8 mi NNW 34.5 mph 46.0 mph 0.00 in   Unknown
11:30 AM 8.1 °F -16.2 °F 1.0 °F 73% 30.11 in 1.2 mi NNW 34.5 mph 44.9 mph 0.00 in   Mostly Cloudy
11:38 AM 7.0 °F -16.7 °F -0.0 °F 73% 30.11 in 3.0 mi NNW 31.1 mph 42.6 mph 0.00 in   Mostly Cloudy
11:52 AM 6.1 °F -17.2 °F -0.0 °F 76% 30.20 in 4.0 mi NNW 28.8 mph 38.0 mph 0.00 in   Haze
11:57 AM 6.1 °F -18.2 °F -0.0 °F 76% 30.11 in 1.8 mi NNW 32.2 mph 38.0 mph 0.00 in Snow Light Snow
12:29 PM 3.9 °F -22.2 °F -2.9 °F 73% 30.12 in 2.5 mi NNW 35.7 mph 42.6 mph 0.00 in   Haze
12:52 PM 3.0 °F -23.1 °F -5.1 °F 69% 30.22 in 2.0 mi NNW 34.5 mph 41.4 mph 0.00 in Snow Light Snow
1:01 PM 3.0 °F -22.8 °F -4.0 °F 73% 30.13 in 4.0 mi NW 33.4 mph 44.9 mph 0.00 in   Haze
1:10 PM 3.0 °F -22.1 °F -4.0 °F 73% 30.14 in 4.0 mi NNW 31.1 mph 40.3 mph 0.00 in   Haze
1:50 PM 1.4 °F -23.2 °F -5.8 °F 72% 30.16 in 6.0 mi NNW 27.6 mph 40.3 mph 0.00 in   Haze
1:52 PM 1.9 °F -22.4 °F -5.1 °F 72% 30.25 in 7.0 mi NNW 27.6 mph 40.3 mph 0.00 in   Overcast
2:52 PM -0.0 °F -27.0 °F -8.0 °F 69% 30.29 in 9.0 mi NNW 33.4 mph 40.3 mph 0.00 in   Mostly Cloudy
3:09 PM -0.9 °F -28.2 °F -7.1 °F 75% 30.21 in 2.5 mi NNW 33.4 mph 40.3 mph N/A   Haze
3:17 PM -0.9 °F -26.7 °F -8.0 °F 72% 30.21 in 4.0 mi NNW 28.8 mph 39.1 mph N/A   Haze
3:37 PM -2.0 °F -29.3 °F -9.0 °F 72% 30.23 in 2.5 mi NNW 32.2 mph 40.3 mph 0.00 in Snow Light Snow
3:45 PM -2.0 °F -28.2 °F -9.9 °F 69% 30.23 in 6.0 mi NNW 28.8 mph 40.3 mph 0.00 in   Haze
3:52 PM -0.9 °F -27.8 °F -9.0 °F 69% 30.34 in 3.0 mi NNW 32.2 mph 40.3 mph 0.00 in   Haze
4:52 PM -2.9 °F -29.0 °F -9.9 °F 72% 30.38 in 4.0 mi NNW 27.6 mph 36.8 mph N/A   Haze
5:52 PM -4.0 °F -28.6 °F -11.0 °F 72% 30.43 in 10.0 mi NNW 23.0 mph 32.2 mph N/A   Overcast
6:50 PM -5.8 °F -31.5 °F -11.2 °F 77% 30.35 in 10.0 mi NNW 24.2 mph 34.5 mph N/A   Scattered Clouds
6:52 PM -5.1 °F -29.0 °F -11.9 °F 72% 30.46 in 10.0 mi NNW 20.7 mph 33.4 mph N/A   Scattered Clouds
6:59 PM -5.1 °F -29.0 °F -11.9 °F 72% 30.36 in 10.0 mi NNW 20.7 mph - N/A   Mostly Cloudy
7:52 PM -6.0 °F -30.2 °F -11.9 °F 75% 30.51 in 10.0 mi NNW 20.7 mph - N/A   Overcast
8:50 PM -5.8 °F -31.0 °F -13.0 °F 71% 30.42 in 10.0 mi NNW 23.0 mph 34.5 mph N/A   Scattered Clouds
8:52 PM -6.0 °F -29.6 °F -13.0 °F 72% 30.53 in 10.0 mi NNW 19.6 mph 34.5 mph N/A   Mostly Cloudy
9:28 PM -6.0 °F -32.7 °F -13.0 °F 72% 30.44 in 10.0 mi NNW 26.5 mph - N/A   Scattered Clouds
9:52 PM -6.0 °F -32.7 °F -13.0 °F 72% 30.55 in 10.0 mi NNW 26.5 mph - N/A   Scattered Clouds
10:52 PM -7.1 °F -33.2 °F -14.1 °F 72% 30.57 in 10.0 mi NNW 24.2 mph 34.5 mph N/A   Clear
11:33 PM -8.0 °F -34.9 °F -14.1 °F 75% 30.50 in 10.0 mi NNW 25.3 mph 32.2 mph N/A   Mostly Cloudy
11:52 PM -8.0 °F -35.8 °F -14.1 °F 75% 30.62 in 10.0 mi NNW 27.6 mph 32.2 mph N/A   Overcast